timestamp,wind_dir_avg,wind_spd_avg,wind_spd_max_dir,wind_spd_gust,battery_voltage,lat,long
2024-03-22 00:04:00+00:00,232.0,17.0,233.0,17.02,12.17,47.59359,-54.27349
2024-03-22 00:14:00+00:00,204.0,10.16,199.0,10.43,12.09,47.59359,-54.27349
2024-03-22 00:24:00+00:00,198.0,11.89,194.0,14.32,12.09,47.59359,-54.27349
2024-03-22 00:34:00+00:00,197.0,12.62,199.0,15.66,12.09,47.59359,-54.27349
2024-03-22 00:44:00+00:00,208.0,10.52,208.0,11.87,12.09,47.59359,-54.27349
2024-03-22 00:54:00+00:00,201.0,11.52,194.0,14.09,12.09,47.59359,-54.27349
2024-03-22 01:04:00+00:00,199.0,12.72,198.0,14.66,12.09,47.59359,-54.27349
2024-03-22 01:14:00+00:00,207.0,11.23,203.0,12.19,12.01,47.59359,-54.27349
2024-03-22 01:24:00+00:00,315.0,0.01,212.0,0.0,12.01,47.59359,-54.27349
2024-03-22 01:34:00+00:00,205.0,10.75,203.0,12.37,12.01,47.59359,-54.27349
2024-03-22 01:44:00+00:00,207.0,11.38,214.0,12.5,12.01,47.59359,-54.27349
2024-03-22 01:54:00+00:00,231.0,11.56,234.0,12.47,12.01,47.59359,-54.27349
2024-03-22 02:04:00+00:00,222.0,9.08,230.0,11.27,12.01,47.59359,-54.27349
2024-03-22 02:14:00+00:00,221.0,10.48,225.0,12.21,12.01,47.59359,-54.27349
2024-03-22 02:24:00+00:00,226.0,11.69,228.0,12.06,12.01,47.59359,-54.27349
2024-03-22 02:34:00+00:00,227.0,11.74,227.0,12.29,12.01,47.59359,-54.27349
2024-03-22 02:44:00+00:00,221.0,8.15,230.0,10.17,12.01,47.59359,-54.27349
2024-03-22 02:54:00+00:00,315.0,0.01,234.0,0.0,12.01,47.59359,-54.27349
2024-03-22 03:04:00+00:00,315.0,0.01,234.0,0.0,12.01,47.59359,-54.27349
2024-03-22 03:14:01+00:00,315.0,0.01,234.0,0.0,11.93,47.59359,-54.27349
2024-03-22 03:24:01+00:00,315.0,0.01,234.0,0.0,11.93,47.59359,-54.27349
2024-03-22 03:34:01+00:00,315.0,0.01,234.0,0.0,11.93,47.59359,-54.27349
2024-03-22 03:44:01+00:00,315.0,0.01,234.0,0.0,11.93,47.59359,-54.27349
2024-03-22 03:54:01+00:00,315.0,0.01,234.0,0.0,11.93,47.59359,-54.27349
2024-03-22 04:04:01+00:00,315.0,0.01,234.0,0.0,11.93,47.59359,-54.27349
2024-03-22 10:14:00+00:00,237.0,11.36,229.0,12.7,11.77,47.59359,-54.27349
2024-03-22 10:24:00+00:00,235.0,11.34,230.0,13.15,11.77,47.59359,-54.27349
2024-03-22 10:34:00+00:00,238.0,10.7,236.0,12.72,11.77,47.59359,-54.27349
2024-03-22 10:44:00+00:00,231.0,10.98,234.0,12.93,11.77,47.59359,-54.27349
2024-03-22 10:54:00+00:00,232.0,11.47,232.0,13.15,11.77,47.59359,-54.27349
2024-03-22 11:04:00+00:00,236.0,11.82,231.0,13.25,11.77,47.59359,-54.27349
2024-03-22 11:14:00+00:00,234.0,12.11,230.0,12.95,12.09,47.59359,-54.27349
2024-03-22 11:24:00+00:00,230.0,11.76,227.0,13.18,12.09,47.59359,-54.27349
2024-03-22 11:34:00+00:00,232.0,11.88,230.0,13.42,12.09,47.59359,-54.27349
2024-03-22 11:44:00+00:00,315.0,0.01,233.0,0.0,12.09,47.59359,-54.27349
2024-03-22 11:54:00+00:00,232.0,12.24,234.0,12.86,12.09,47.59359,-54.27349
2024-03-22 12:04:00+00:00,236.0,12.0,237.0,12.49,12.09,47.59359,-54.27349
2024-03-22 12:14:00+00:00,228.0,12.6,227.0,13.14,12.81,47.59359,-54.27349
2024-03-22 12:24:00+00:00,315.0,0.01,227.0,0.0,12.81,47.59359,-54.27349
2024-03-22 12:34:00+00:00,228.0,13.05,227.0,13.34,12.81,47.59359,-54.27349
2024-03-22 12:44:00+00:00,227.0,12.7,227.0,13.5,12.81,47.59359,-54.27349
2024-03-22 12:54:00+00:00,224.0,12.83,225.0,14.09,12.81,47.59359,-54.27349
2024-03-22 13:04:00+00:00,226.0,13.19,224.0,13.86,12.81,47.59359,-54.27349
2024-03-22 13:14:01+00:00,226.0,13.14,222.0,14.42,13.44,47.59359,-54.27349
2024-03-22 13:24:01+00:00,225.0,13.25,225.0,14.59,13.44,47.59359,-54.27349
2024-03-22 13:34:01+00:00,226.0,12.83,226.0,13.86,13.44,47.59359,-54.27349
2024-03-22 13:44:01+00:00,224.0,12.4,223.0,13.81,13.44,47.59359,-54.27349
2024-03-22 13:54:01+00:00,224.0,13.04,221.0,14.92,13.44,47.59359,-54.27349
2024-03-22 14:04:01+00:00,228.0,12.83,222.0,14.88,13.44,47.59359,-54.27349
2024-03-22 14:14:00+00:00,223.0,13.37,223.0,13.67,13.44,47.59359,-54.27349
2024-03-22 14:24:00+00:00,220.0,14.27,222.0,15.48,13.44,47.59359,-54.27349
2024-03-22 14:34:00+00:00,217.0,14.7,218.0,16.15,13.44,47.59359,-54.27349
2024-03-22 14:44:00+00:00,222.0,13.72,220.0,15.02,13.44,47.59359,-54.27349
2024-03-22 14:54:00+00:00,223.0,13.53,222.0,14.44,13.44,47.59359,-54.27349
2024-03-22 15:04:00+00:00,223.0,13.82,223.0,14.93,13.44,47.59359,-54.27349
2024-03-22 15:14:00+00:00,222.0,14.01,220.0,15.77,13.44,47.59359,-54.27349
2024-03-22 15:24:00+00:00,219.0,13.68,217.0,16.48,13.44,47.59359,-54.27349
2024-03-22 15:34:00+00:00,217.0,14.19,214.0,15.89,13.44,47.59359,-54.27349
2024-03-22 15:44:00+00:00,221.0,13.65,223.0,14.92,13.44,47.59359,-54.27349
2024-03-22 15:54:00+00:00,223.0,13.2,219.0,14.81,13.44,47.59359,-54.27349
2024-03-22 16:04:00+00:00,217.0,13.61,220.0,14.94,13.44,47.59359,-54.27349
2024-03-22 16:14:00+00:00,217.0,13.29,212.0,15.34,13.68,47.59359,-54.27349
2024-03-22 16:24:00+00:00,219.0,13.23,219.0,14.53,13.68,47.59359,-54.27349
2024-03-22 16:34:00+00:00,214.0,14.43,215.0,16.84,13.68,47.59359,-54.27349
2024-03-22 16:44:00+00:00,216.0,13.22,215.0,14.77,13.68,47.59359,-54.27349
2024-03-22 16:54:00+00:00,219.0,12.71,217.0,14.8,13.68,47.59359,-54.27349
2024-03-22 17:04:00+00:00,221.0,12.59,212.0,14.96,13.68,47.59359,-54.27349
2024-03-22 17:14:00+00:00,217.0,11.77,235.0,20.68,13.68,47.59359,-54.27349
2024-03-22 17:24:00+00:00,219.0,11.76,223.0,14.02,13.68,47.59359,-54.27349
2024-03-22 17:34:00+00:00,220.0,12.92,220.0,14.09,13.68,47.59359,-54.27349
2024-03-22 17:44:00+00:00,225.0,11.77,220.0,13.33,13.68,47.59359,-54.27349
2024-03-22 17:54:00+00:00,219.0,12.52,223.0,13.79,13.68,47.59359,-54.27349
2024-03-22 18:04:00+00:00,219.0,12.51,217.0,13.73,13.68,47.59359,-54.27349
2024-03-22 18:14:00+00:00,222.0,12.62,219.0,14.02,14.24,47.59359,-54.27349
2024-03-22 18:24:00+00:00,229.0,11.12,219.0,12.57,14.24,47.59359,-54.27349
2024-03-22 18:34:00+00:00,231.0,11.16,230.0,12.14,14.24,47.59359,-54.27349
2024-03-22 18:44:00+00:00,222.0,10.89,216.0,14.66,14.24,47.59359,-54.27349
2024-03-22 18:54:00+00:00,215.0,12.97,214.0,16.02,14.24,47.59359,-54.27349
2024-03-22 19:04:00+00:00,226.0,12.3,224.0,13.73,14.24,47.59359,-54.27349
2024-03-22 19:14:00+00:00,216.0,13.68,216.0,15.41,13.53,47.59359,-54.27349
2024-03-22 19:24:00+00:00,221.0,11.23,217.0,13.2,13.53,47.59359,-54.27349
2024-03-22 19:34:00+00:00,224.0,11.38,226.0,13.01,13.53,47.59359,-54.27349
2024-03-22 19:44:00+00:00,224.0,11.54,221.0,13.29,13.53,47.59359,-54.27349
2024-03-22 19:54:00+00:00,220.0,12.36,214.0,15.18,13.53,47.59359,-54.27349
2024-03-22 20:04:00+00:00,219.0,12.38,218.0,15.53,13.53,47.59359,-54.27349
2024-03-22 20:14:01+00:00,222.0,12.46,220.0,14.43,13.29,47.59359,-54.27349
2024-03-22 20:24:01+00:00,225.0,11.95,219.0,13.6,13.29,47.59359,-54.27349
2024-03-22 20:34:01+00:00,229.0,11.09,225.0,13.3,13.29,47.59359,-54.27349
2024-03-22 20:44:01+00:00,225.0,11.97,219.0,13.23,13.29,47.59359,-54.27349
2024-03-22 20:54:01+00:00,224.0,11.58,219.0,13.19,13.29,47.59359,-54.27349
2024-03-22 21:04:01+00:00,232.0,10.64,229.0,12.33,13.29,47.59359,-54.27349
2024-03-22 21:14:00+00:00,232.0,10.95,223.0,13.48,12.81,47.59359,-54.27349
2024-03-22 21:24:00+00:00,231.0,11.47,231.0,12.01,12.81,47.59359,-54.27349
2024-03-22 21:34:00+00:00,232.0,11.16,226.0,12.1,12.81,47.59359,-54.27349
2024-03-22 21:44:00+00:00,236.0,10.88,234.0,11.86,12.81,47.59359,-54.27349
2024-03-22 21:54:00+00:00,237.0,11.06,233.0,12.17,12.81,47.59359,-54.27349
2024-03-22 22:04:00+00:00,233.0,11.19,233.0,11.65,12.81,47.59359,-54.27349
2024-03-22 22:14:00+00:00,236.0,11.21,234.0,11.65,12.33,47.59359,-54.27349
2024-03-22 22:24:00+00:00,315.0,0.01,235.0,0.0,12.33,47.59359,-54.27349
2024-03-22 22:34:00+00:00,234.0,10.81,232.0,11.99,12.33,47.59359,-54.27349
2024-03-22 22:44:00+00:00,235.0,10.48,237.0,11.55,12.33,47.59359,-54.27349
2024-03-22 22:54:00+00:00,232.0,10.14,231.0,11.11,12.33,47.59359,-54.27349
2024-03-22 23:04:00+00:00,232.0,10.74,225.0,12.03,12.33,47.59359,-54.27349
2024-03-22 23:14:00+00:00,231.0,10.69,229.0,12.26,12.25,47.59359,-54.27349
2024-03-22 23:24:00+00:00,230.0,10.82,237.0,12.21,12.25,47.59359,-54.27349
2024-03-22 23:34:00+00:00,228.0,11.32,221.0,13.97,12.25,47.59359,-54.27349
2024-03-22 23:44:00+00:00,230.0,10.94,225.0,12.75,12.25,47.59359,-54.27349
2024-03-22 23:54:00+00:00,234.0,10.75,235.0,11.53,12.25,47.59359,-54.27349
